OBJECT K, 64885

Orbit data source: Space-Track

You're viewing an Uncataloged Satellite

Recently launched and/or uncataloged satellites may have evolving metadata. Metadata may include but not limited to: Owner, Maufacturer, Bus, Motor, and Mission.

OBJECT K, 64885 is a satellite in SSO that was launched on Fri, 25 Jul 2025 UTC via a SOYUZ-2-1B launch vehicle from the Vostochny Cosmodrome (VOSTO). Unknown objects in Earth's orbit typically refer to objects detected orbiting the Earth but have not yet been identified or cataloged. These objects could be anything from previously untracked satellites, spent rocket stages, debris from satellite collisions, or even natural meteoroids temporarily captured by Earth's gravity.

Loading next visibility...
Identifier
64885, 2025-155K
Orbit
SSO
Country
Flag of TBDTBD
Related business
None
Manufacturer
Unknown
Mission
Operational Commercial Technology
Bus & Motor
Unknown
Mass
Unknown
Launch date (UTC)
2025-07-25 (9 months ago)
Launch vehicle
SOYUZ-2-1B
Launch site
Vostochny Cosmodrome (VOSTO)
Object type
Unknown
Shape & HBR
Box, 1.1 m
Radar Cross Section
0.035 m², Medium (>0.1 m² and < 1m²)

Expand to show TLE details & history
Last TLE update: 6 hours ago

TLE from 6 hours ago
0 OBJECT K
1 64885U 25155K   26121.24102025  .00029693  00000-0  81468-3 0  9996
2 64885  97.4483  91.1283 0005381 353.1194   6.9975 15.37208240 73698
Epoch: 2026-05-01T05:47Z
TLE epoch observation values (Epoch: 2026-05-01T05:47:04.149Z)
Latitude
-0.00008°
Longitude
145.18492°
Altitude
453.832 km
Speed
7.642 km/s
True Right ascension
06h 04m 30s
True Declination
0° 00' 00"
Sunlit
Object was in daylight at epoch
Visualization orbit readout
Latitude
Unknown
Longitude
Unknown
Altitude
Unknown
Speed
Unknown
Apparent Right ascension
Unknown
Apparent Declination
Unknown
Sunlit
N/A
Visualization observer readout
Local Sidereal Time
19:21:06
Azimuth
Unknown
Elevation
Unknown
Doppler factor
Unknown
Orbital elements
Apogee altitude
454.989 km
Perigee altitude
447.639 km
Semi-major axis
6,829.451 km
Eccentricity
0.00054
Inclination
97.4483°
RAAN
91.1283°
Arg. of periapsis
353.1194°
True anomaly
7.00502°
Mean anomaly
6.9975°
Eccentric anomaly
7.00126°
Mean motion
3.8456 °/min
Orbital period
93.61 mins
BSTAR
0.00081468
Loading maneuver chart data...
Computing Atmospheric mass density...
Loading historical data...
Loading historical data...
Loading historical data...
Loading historical data...
Loading historical data...
Loading historical data...
Loading historical data...

Documentation

Showing up to 5 results
|